[[[{"header":{"parameterUnit":"kt","parameterCategory":2,"dx":1,"dy":1,"la1":30.253999710083008,"la2":30.299108505249023,"lo1":-89.0895004272461,"lo2":-89.04439544677734,"nx":28,"ny":28,"refTime":"2022-10-12T21:00:00:Z","depth":0,"parameterNumber":1,"parameterNumberName":"U-component_of_WINDS"},"data":[-0.7042,-0.7022,-0.7029,-0.7009,-0.7012,-0.7,-0.6998,-0.6996,-0.6996,-0.6983,-0.6976,-0.6981,-0.6985,-0.6979,-0.6972,-0.6975,-0.6971,-0.6959,-0.6964,-0.7014,-0.7021,-0.7029,-0.7034,-0.6958,-0.6958,-0.6911,-0.691,-0.691,-0.7076,-0.7078,-0.707,-0.7067,-0.706,-0.7076,-0.7075,-0.7068,-0.7057,-0.7058,-0.7052,-0.7041,-0.7033,-0.7042,-0.7035,-0.7026,-0.7034,-0.7024,-0.7025,-0.7025,-0.7079,-0.7084,-0.7018,-0.7018,-0.7018,-0.7018,-0.7018,-0.7018,-0.7139,-0.7127,-0.713,-0.7121,-0.7122,-0.712,-0.711,-0.7117,-0.711,-0.7104,-0.7115,-0.7103,-0.7105,-0.7102,-0.7103,-0.7094,-0.7106,-0.7098,-0.7096,-0.7093,-0.7089,-0.7155,-0.7093,-0.7093,-0.7094,-0.7094,-0.7094,0,-0.7188,-0.7195,-0.7188,-0.7183,-0.7178,-0.7175,-0.7174,-0.7168,-0.7186,-0.7179,-0.717,-0.7166,-0.7158,-0.7151,-0.7147,-0.715,-0.7167,-0.717,-0.7164,-0.7159,-0.7153,-0.7155,-0.7242,-0.7172,-0.7172,-0.7173,-0.7173,-0.7174,-0.7253,-0.7238,-0.7245,-0.7239,-0.7241,-0.7232,-0.7228,-0.7245,-0.724,-0.7241,-0.723,-0.7223,-0.7218,-0.7203,-0.7212,-0.7206,-0.7215,-0.7187,-0.7214,-0.7209,-0.7214,-0.7214,-0.7213,-0.7181,-0.718,-0.7179,-0.7179,0,-0.7288,-0.7301,-0.7281,-0.729,-0.7292,-0.7276,-0.7284,-0.7273,-0.7282,-0.7268,-0.7266,-0.728,-0.7271,-0.7285,-0.7278,-0.7286,-0.7259,-0.7268,-0.7258,-0.726,-0.7236,-0.7238,-0.7157,-0.7147,-0.7227,-0.7226,-0.7225,0,-0.7348,-0.7329,-0.7349,-0.7337,-0.7317,-0.7335,-0.7314,-0.732,-0.7323,-0.7312,-0.7334,-0.7324,-0.7344,-0.7336,-0.7347,-0.7328,-0.7327,-0.7331,-0.7335,-0.7329,-0.7329,-0.7327,-0.7331,-0.7344,-0.7344,-0.7344,-0.7345,0,-0.7402,-0.7391,-0.7372,-0.7372,-0.738,-0.7371,-0.7374,-0.7378,-0.7375,-0.7372,-0.737,-0.7366,-0.7364,-0.736,-0.7375,-0.7393,-0.7352,-0.738,-0.7357,-0.7356,-0.7347,-0.7347,-0.7272,-0.7345,-0.7345,-0.7345,-0.7345,0,-0.7453,-0.745,-0.7421,-0.7428,-0.7425,-0.7413,-0.741,-0.7403,-0.7406,-0.7413,-0.7411,-0.7428,-0.7413,-0.7439,-0.7419,-0.7438,-0.7434,-0.7437,-0.7436,-0.7436,-0.7465,-0.7419,-0.7347,-0.734,-0.7435,-0.7435,-0.7436,0,-0.7511,-0.7485,-0.7501,-0.7473,-0.7464,-0.7489,-0.7476,-0.7478,-0.7486,-0.7479,-0.7488,-0.748,-0.7502,-0.7502,-0.749,-0.7499,-0.7474,-0.7503,-0.7491,-0.7491,-0.7489,-0.7422,-0.7408,-0.7361,-0.7446,-0.7445,-0.7444,0,-0.7557,-0.7569,-0.7563,-0.7563,-0.757,-0.7562,-0.7547,-0.7544,-0.7538,-0.7539,-0.7526,-0.7516,-0.7532,-0.7532,-0.7545,-0.7532,-0.7491,-0.7552,-0.7552,-0.754,-0.7452,-0.7438,-0.7431,-0.7503,-0.7502,-0.7501,-0.7452,0,-0.763,-0.762,-0.7604,-0.7606,-0.7602,-0.7587,-0.7603,-0.7597,-0.761,-0.762,-0.7602,-0.7609,-0.7605,-0.7601,-0.7614,-0.758,-0.7588,-0.7606,-0.7633,-0.7589,-0.7573,-0.7567,-0.7655,-0.7656,-0.7656,-0.7657,0,0,-0.7681,-0.7668,-0.7687,-0.7673,-0.7672,-0.7699,-0.768,-0.7682,-0.7685,-0.7683,-0.7698,-0.7685,-0.769,-0.7667,-0.7654,-0.7653,-0.7648,-0.7663,-0.761,-0.7604,-0.76,-0.7582,-0.7575,-0.7658,-0.7659,-0.7659,-0.7659,0,-0.7711,-0.7716,-0.7698,-0.7701,-0.7706,-0.7717,-0.7712,-0.7722,-0.7727,-0.7711,-0.7734,-0.7725,-0.7715,-0.7716,-0.7716,-0.7667,-0.7684,-0.7665,-0.7632,-0.7617,-0.761,-0.7605,-0.7586,-0.758,-0.7661,-0.7661,-0.7661,0,-0.776,-0.7767,-0.7761,-0.7759,-0.7763,-0.7753,-0.7785,-0.7773,-0.7766,-0.7797,-0.7781,-0.7787,-0.7791,-0.7768,-0.7758,-0.7772,-0.7716,-0.7737,-0.7733,-0.7732,-0.7718,-0.7711,-0.7704,-0.7793,-0.7794,-0.7794,0,0,-0.7784,-0.7775,-0.7789,-0.7767,-0.7768,-0.7784,-0.7781,-0.7794,-0.7798,-0.7799,-0.7808,-0.781,-0.7804,-0.78,-0.7795,-0.7767,-0.777,-0.7753,-0.7747,-0.7741,-0.7738,-0.7722,-0.7715,-0.7795,-0.7795,-0.7796,0,0,-0.7795,-0.7811,-0.7824,-0.78,-0.7803,-0.7816,-0.7801,-0.7818,-0.7815,-0.7819,-0.7841,-0.7843,-0.7822,-0.7827,-0.7845,-0.7805,-0.7831,-0.7827,-0.7802,-0.7794,-0.7788,-0.7787,-0.7879,0,0,0,0,0,-0.7835,-0.7809,-0.782,-0.7819,-0.7818,-0.7809,-0.7809,-0.7827,-0.7845,-0.7833,-0.7842,-0.7862,-0.7841,-0.7857,-0.7855,-0.7836,-0.7814,-0.7811,-0.7808,-0.7769,-0.7761,-0.7754,0,0,0,0,0,0,-0.7835,-0.7833,-0.7821,-0.7832,-0.7832,-0.781,-0.7844,-0.7848,-0.7846,-0.785,-0.786,-0.7862,-0.7877,-0.7859,-0.7857,-0.7838,-0.7879,-0.7813,-0.781,-0.7808,-0.7766,-0.776,-0.7754,0,0,0,0,0,-0.7834,-0.7833,-0.7827,-0.7833,-0.7833,-0.785,-0.7845,-0.7849,-0.7848,-0.7863,-0.7867,-0.7861,-0.7876,-0.7876,-0.7858,-0.7839,-0.7881,-0.788,-0.7811,-0.7809,-0.7807,-0.7763,0,0,0,0,0,0,-0.7834,-0.7836,-0.7827,-0.7828,-0.7844,-0.7852,-0.7854,-0.785,-0.7861,-0.7864,-0.7866,-0.7869,-0.7875,-0.7875,-0.7875,-0.7838,-0.7882,-0.7881,-0.7881,-0.781,-0.7808,-0.7806,0,0,0,0,0,0,-0.7837,-0.7837,-0.7828,-0.7841,-0.7844,-0.7853,-0.7855,-0.7843,-0.7861,-0.7864,-0.7867,-0.7867,-0.7876,-0.7875,-0.7874,-0.7855,-0.7883,-0.7882,-0.7882,-0.7881,-0.7808,-0.7807,0,0,0,0,0,0,-0.7837,-0.7837,-0.7841,-0.7843,-0.7845,-0.7854,-0.7843,-0.7841,-0.7873,-0.7863,-0.7876,-0.7877,-0.7875,-0.7875,-0.7874,-0.7854,-0.7855,-0.7883,-0.7882,-0.7882,-0.7882,0,0,0,0,0,0,0,-0.7837,-0.7836,-0.7824,-0.7844,-0.7846,-0.7834,-0.7834,-0.7834,-0.7873,-0.7874,-0.7876,-0.7877,-0.7887,-0.7886,-0.7885,-0.7854,0,0,-0.7883,-0.7883,0,0,0,0,0,0,0,0,-0.7837,-0.7836,-0.7824,-0.7824,-0.7824,-0.7834,-0.7834,-0.7834,-0.7873,-0.7874,-0.7875,-0.7876,-0.7887,-0.7886,-0.7885,0,0,0,0,0,0,0,0,0,0,0,0,0,0,0,-0.7824,-0.7824,0,-0.7834,-0.7834,-0.7834,-0.7873,-0.7874,-0.7875,-0.7876,-0.7887,-0.7886,-0.7886,0,0,0,0,0,0,0,0,0,0,0,0,0,0,0,0,0,0,0,0,0,0,0,0,0,0,0,0,0,0,0,0,0,0,0,0,0,0,0,0,0,0,0,0,0,0,0,0,0,0,0,0,0,0,0,0,0,0,0,0,0,0,0,0,0,0,0,0,0]}],[{"header":{"parameterUnit":"kt","parameterCategory":2,"dx":1,"dy":1,"la1":30.253999710083008,"la2":30.299108505249023,"lo1":-89.0895004272461,"lo2":-89.04439544677734,"nx":28,"ny":28,"refTime":"2022-10-12T21:00:00:Z","depth":0,"parameterNumber":2,"parameterNumberName":"V-component_of_WINDS"},"data":[5.4504,5.4662,5.4706,5.4908,5.4981,5.5128,5.5194,5.5285,5.5369,5.555,5.5662,5.5724,5.5827,5.5973,5.6098,5.6123,5.6175,5.6199,5.6226,5.6074,5.6056,5.6039,5.6005,5.6209,5.6209,5.6378,5.638,5.6381,5.439,5.4464,5.4582,5.4728,5.4831,5.4834,5.495,5.5037,5.5168,5.5272,5.5384,5.5548,5.5683,5.578,5.5919,5.5996,5.6008,5.6031,5.6028,5.6045,5.5884,5.5847,5.602,5.602,5.602,5.602,5.602,5.602,5.4196,5.4289,5.4402,5.4532,5.4617,5.4714,5.4811,5.4884,5.5002,5.515,5.5179,5.533,5.5444,5.5632,5.5707,5.5827,5.5809,5.585,5.5861,5.5872,5.5878,5.5634,5.5852,5.5851,5.5851,5.5851,5.5851,0,5.4068,5.4099,5.4215,5.4346,5.4443,5.4548,5.4652,5.4714,5.4794,5.4888,5.5029,5.5118,5.5294,5.5433,5.5573,5.5643,5.566,5.5664,5.5694,5.5684,5.5658,5.5678,5.5416,5.5659,5.5657,5.5656,5.5655,5.5655,5.3879,5.3981,5.4121,5.4197,5.4265,5.4387,5.4469,5.4532,5.4617,5.4756,5.4836,5.4974,5.5089,5.5308,5.5395,5.5527,5.5538,5.5626,5.5558,5.5543,5.5545,5.554,5.5552,5.5639,5.5641,5.5643,5.5644,0,5.377,5.384,5.4013,5.4141,5.4177,5.4281,5.4392,5.4488,5.4548,5.4689,5.4726,5.4822,5.496,5.5032,5.5204,5.5238,5.5417,5.542,5.5378,5.5384,5.5474,5.5466,5.5745,5.5787,5.5571,5.5573,5.5574,0,5.3638,5.377,5.3869,5.3965,5.4114,5.4174,5.432,5.4387,5.4485,5.4596,5.4624,5.4728,5.4804,5.492,5.497,5.5128,5.5159,5.5196,5.5209,5.5196,5.5192,5.5246,5.5238,5.5228,5.5226,5.5225,5.5224,0,5.3462,5.3668,5.3824,5.3883,5.4034,5.4106,5.4173,5.4283,5.4363,5.4478,5.4532,5.4662,5.4734,5.4835,5.4899,5.4851,5.5092,5.5039,5.5131,5.513,5.5184,5.518,5.5405,5.5222,5.5222,5.5221,5.5221,0,5.3369,5.3482,5.3697,5.3824,5.3876,5.3978,5.4111,5.4215,5.4329,5.4367,5.4459,5.4487,5.4628,5.457,5.4767,5.4686,5.4756,5.4804,5.4812,5.4833,5.4767,5.4889,5.5092,5.5119,5.4847,5.4844,5.4841,0,5.3149,5.3384,5.3438,5.3641,5.376,5.3784,5.39,5.3999,5.406,5.4171,5.4237,5.4363,5.4335,5.4385,5.4472,5.4548,5.4652,5.4535,5.47,5.4705,5.4673,5.4859,5.4874,5.5039,5.4802,5.4806,5.4809,0,5.2989,5.3169,5.3202,5.3273,5.3413,5.3512,5.3644,5.3782,5.3853,5.3961,5.4076,5.4252,5.424,5.4321,5.4358,5.4445,5.4583,5.4421,5.4425,5.4451,5.4787,5.48,5.4828,5.4589,5.4594,5.4598,5.4778,0,5.2838,5.2964,5.3053,5.3206,5.3293,5.3423,5.3499,5.3581,5.3608,5.3669,5.3836,5.3937,5.4079,5.4127,5.4154,5.4329,5.4312,5.4297,5.4249,5.4369,5.4431,5.4456,5.4151,5.415,5.4149,5.4148,0,0,5.2612,5.2795,5.2849,5.2979,5.3057,5.308,5.3213,5.3291,5.3449,5.3504,5.3476,5.3741,5.3825,5.4021,5.4064,5.412,5.416,5.4115,5.431,5.4328,5.4345,5.4409,5.4434,5.4147,5.4147,5.4146,5.4146,0,5.2574,5.2655,5.2784,5.2868,5.2993,5.3051,5.3081,5.3211,5.3256,5.3419,5.3438,5.3548,5.3757,5.3844,5.3916,5.4092,5.4102,5.4128,5.4199,5.4299,5.4318,5.4335,5.4402,5.4424,5.4144,5.4144,5.4144,0,5.2432,5.2526,5.2596,5.2771,5.2854,5.2975,5.2943,5.3072,5.3163,5.3184,5.3346,5.3413,5.3535,5.3709,5.3789,5.3768,5.4045,5.397,5.3977,5.3989,5.409,5.4112,5.4132,5.387,5.3868,5.3867,0,0,5.2389,5.2505,5.2627,5.2769,5.2819,5.2907,5.2979,5.3013,5.3121,5.3164,5.325,5.3356,5.3479,5.3558,5.3677,5.3856,5.3889,5.3933,5.3946,5.3956,5.3973,5.4077,5.4099,5.3862,5.3862,5.3862,0,0,5.2369,5.2514,5.2521,5.2696,5.2797,5.2927,5.3012,5.3025,5.3139,5.3133,5.3198,5.3229,5.3392,5.3457,5.3384,5.3662,5.3613,5.3632,5.3614,5.3632,5.3645,5.3627,5.3367,0,0,0,0,0,5.2368,5.2496,5.2501,5.2541,5.2764,5.2924,5.2953,5.3009,5.2973,5.3039,5.3113,5.3118,5.3432,5.3368,5.3408,5.349,5.3801,5.3812,5.3822,5.3842,5.3859,5.3874,0,0,0,0,0,0,5.2385,5.2434,5.2498,5.2632,5.2682,5.292,5.2872,5.2891,5.2967,5.2966,5.3103,5.3122,5.3174,5.3352,5.3387,5.3464,5.3355,5.3805,5.3814,5.3823,5.3848,5.3862,5.3874,0,0,0,0,0,5.2398,5.2438,5.278,5.263,5.2674,5.2779,5.2868,5.2883,5.2943,5.3058,5.3077,5.2979,5.3174,5.3208,5.3373,5.3446,5.3331,5.3344,5.3811,5.3818,5.3825,5.3855,0,0,0,0,0,0,5.2408,5.2454,5.279,5.2806,5.2586,5.2767,5.2797,5.2876,5.3032,5.3052,5.2936,5.2933,5.3176,5.3202,5.3228,5.3437,5.3312,5.3325,5.3333,5.3817,5.3822,5.3827,0,0,0,0,0,0,5.2433,5.2466,5.2798,5.2739,5.2748,5.2755,5.2782,5.293,5.3034,5.2901,5.2903,5.2933,5.3138,5.3198,5.3218,5.3447,5.3297,5.3309,5.3318,5.3324,5.3821,5.3826,0,0,0,0,0,0,5.2448,5.2477,5.2735,5.2743,5.275,5.2929,5.2887,5.3113,5.2981,5.2894,5.2971,5.2967,5.3135,5.3156,5.3212,5.3432,5.3443,5.3297,5.3306,5.3312,5.3316,0,0,0,0,0,0,0,5.246,5.2251,5.2698,5.2745,5.2752,5.2949,5.2953,5.2958,5.298,5.2976,5.2972,5.2969,5.3225,5.3239,5.3253,5.342,0,0,5.3296,5.3302,0,0,0,0,0,0,0,0,5.224,5.2248,5.2698,5.2701,5.2704,5.295,5.2953,5.2957,5.298,5.2977,5.2973,5.297,5.3229,5.324,5.3251,0,0,0,0,0,0,0,0,0,0,0,0,0,0,0,5.2698,5.2701,0,5.295,5.2953,5.2956,5.2979,5.2977,5.2974,5.2971,5.3232,5.3241,5.325,0,0,0,0,0,0,0,0,0,0,0,0,0,0,0,0,0,0,0,0,0,0,0,0,0,0,0,0,0,0,0,0,0,0,0,0,0,0,0,0,0,0,0,0,0,0,0,0,0,0,0,0,0,0,0,0,0,0,0,0,0,0,0,0,0,0,0,0,0]}]]]